Theta_e
318 318 317 317 318 318 318 317 317 317 318 318 317 318 317 318 319 317 311 309 309 308 308 307 307 307 308 307 306 306 306 306 307 311 313 311 309 309 312 312 312 314 312 310 311 312 312 311 311 311 317 317 315 316 314 317 324 332 338 329 320 321 324 322 320 319 322 323 317 315 314 316 317 313 312 311 316 318 316 322 321 322 324 324 325 322 324 333
318 318 317 317 318 317 316 316 317 317 317 318 317 317 317 318 317 315 311 308 308 308 308 307 307 307 307 306 306 306 306 306 309 313 313 308 311 311 311 313 313 314 312 310 311 312 312 312 311 313 321 319 314 316 316 313 322 336 333 325 328 329 323 320 321 317 317 317 316 316 314 314 316 315 313 313 318 317 317 318 319 326 327 326 326 323 328 333
318 317 316 316 316 316 316 316 317 317 317 317 317 317 317 318 316 313 310 308 308 308 308 307 307 306 306 306 306 306 307 308 311 312 310 307 311 313 312 316 314 312 311 310 312 310 312 312 310 314 321 319 315 317 320 316 318 328 327 324 333 334 321 317 319 318 316 316 318 316 312 313 314 313 312 316 319 316 319 320 318 325 330 335 329 324 330 332
317 315 315 314 314 316 317 316 316 316 317 317 316 316 317 317 315 312 309 308 307 308 308 307 306 306 306 306 306 307 308 309 309 310 309 308 311 314 315 317 314 312 311 310 311 311 311 311 310 315 319 318 317 317 318 317 316 319 324 326 327 325 318 316 317 318 316 315 318 317 313 313 312 312 313 317 319 317 320 320 321 325 334 340 328 325 331 330
316 314 313 313 314 316 316 316 316 316 317 316 316 316 316 316 314 310 308 307 307 308 308 307 306 306 306 306 307 308 309 307 309 312 311 310 312 315 315 314 313 311 311 311 312 312 311 309 311 318 319 315 317 318 316 314 315 315 317 320 320 318 315 315 316 316 314 313 316 317 314 313 311 312 316 318 319 322 320 318 320 321 333 341 330 326 329 328
315 314 313 313 315 316 315 316 316 316 316 316 316 316 316 316 313 308 308 307 307 308 308 307 306 306 306 306 308 309 309 308 312 315 315 313 314 314 313 312 312 311 312 313 312 311 312 311 312 317 318 316 315 317 315 311 313 318 316 314 317 317 315 314 314 314 312 314 316 317 314 313 313 313 315 317 319 321 317 314 314 313 324 332 328 327 330 330
315 314 313 313 315 315 314 316 315 315 316 316 316 315 315 315 312 308 308 307 307 307 307 307 306 306 306 307 309 311 311 311 312 314 315 314 314 313 312 312 312 311 312 312 311 313 314 313 313 317 318 316 314 313 314 312 314 321 319 314 314 314 314 314 314 313 312 316 316 313 312 313 316 314 311 313 318 317 310 306 305 311 320 325 326 328 330 330
315 314 313 313 313 314 314 315 315 315 316 316 315 314 315 315 312 308 308 307 306 307 307 307 306 306 307 308 312 312 311 313 313 315 314 313 313 312 312 313 312 312 312 312 312 313 314 313 312 314 317 314 313 314 312 313 316 320 319 315 314 313 314 313 313 315 314 314 312 311 314 314 315 311 310 316 318 315 311 311 314 318 324 326 328 330 328 327
315 314 314 312 312 314 315 314 315 316 316 315 315 314 314 314 312 308 307 307 306 307 306 307 306 307 309 309 312 311 310 313 314 314 312 311 312 312 312 312 312 312 312 312 311 312 312 313 313 312 314 312 312 315 313 314 316 317 318 316 315 314 314 313 314 317 316 313 312 313 315 314 312 310 314 319 317 314 316 329 333 329 332 330 329 328 326 327
315 314 314 313 313 314 314 314 315 315 315 315 314 313 314 314 312 309 307 307 306 306 306 307 306 308 311 309 308 308 310 315 315 313 312 311 312 312 313 312 312 313 311 311 310 310 312 312 312 311 313 313 313 314 312 312 313 316 318 317 317 315 314 315 315 316 316 314 313 315 316 314 312 311 317 317 312 311 321 340 336 333 339 331 328 327 325 325
315 314 313 312 313 314 313 314 315 315 314 313 313 313 313 313 312 310 308 306 306 306 307 307 307 308 311 310 307 307 312 317 315 313 311 311 312 312 314 313 313 313 312 312 310 310 312 310 308 310 312 312 314 314 312 312 312 315 318 316 317 317 314 314 315 315 316 313 313 316 315 315 312 313 320 315 310 311 321 340 337 336 336 327 327 327 324 324
315 314 313 312 312 312 312 314 314 313 313 312 313 313 313 313 312 311 308 306 306 306 307 307 307 308 309 308 308 309 314 317 315 313 311 311 312 313 314 314 314 314 313 312 311 312 312 310 310 313 313 312 314 315 313 313 313 314 316 315 316 319 315 313 314 315 315 313 313 315 313 316 315 316 320 313 310 313 318 330 335 334 330 325 327 326 324 323
314 314 313 312 312 311 312 313 313 313 312 311 313 313 313 312 311 311 308 306 307 306 307 308 307 309 308 307 309 311 314 316 314 312 311 312 313 314 314 314 314 315 313 312 313 313 312 311 313 314 313 316 316 311 313 315 314 314 315 317 317 317 314 312 314 314 313 313 313 313 312 318 319 316 314 310 309 314 317 323 327 328 324 321 323 324 325 321
314 314 313 312 312 311 310 312 313 312 311 311 313 313 313 312 311 311 308 306 306 306 307 308 308 309 306 307 310 312 315 315 314 312 311 313 313 314 313 313 314 314 314 313 313 314 314 311 311 313 311 316 314 310 317 319 318 316 312 319 321 314 314 315 314 315 312 311 311 309 311 318 317 313 310 310 311 312 316 321 321 323 321 317 318 321 323 319
314 314 313 312 312 311 310 311 311 311 310 311 312 313 312 311 310 309 307 306 306 307 307 308 310 309 306 308 310 312 315 314 313 311 312 313 313 314 313 313 313 313 314 313 314 314 313 312 314 316 312 312 312 314 321 321 323 322 311 319 321 311 315 318 314 316 315 312 312 309 313 318 316 314 310 309 313 313 315 320 319 320 318 316 316 316 319 316
314 313 312 312 312 311 311 310 311 311 311 311 312 312 311 311 309 308 307 306 307 308 308 311 312 308 306 309 311 313 314 313 313 312 313 313 313 314 313 313 313 313 314 312 313 313 312 315 315 314 313 313 315 319 321 319 324 324 315 319 321 314 317 317 314 315 315 314 314 311 313 318 317 317 314 310 313 314 315 320 320 320 318 315 314 313 314 313
313 313 312 312 311 311 310 310 310 310 311 311 312 311 310 310 308 307 307 307 309 309 309 313 311 306 306 308 311 314 312 312 313 312 314 313 313 314 312 314 312 311 313 312 313 312 312 315 312 312 317 315 316 319 318 316 318 320 318 319 319 317 317 316 315 314 312 314 315 313 314 318 318 318 317 313 313 313 316 321 321 321 320 318 315 313 312 312
313 313 312 311 311 310 309 309 310 310 311 310 310 311 310 310 309 309 310 310 311 309 309 310 308 308 308 308 312 314 312 312 313 313 314 313 313 313 313 314 311 310 314 313 313 313 314 316 315 318 320 314 314 317 316 317 318 318 318 316 316 316 313 316 319 314 312 314 315 316 315 318 320 318 317 313 310 313 316 319 319 320 322 320 317 316 314 312
312 312 311 311 311 310 309 309 310 311 311 310 311 312 311 311 311 311 311 310 309 307 309 308 307 312 311 310 313 313 312 312 313 313 313 313 313 313 313 312 313 315 315 315 314 314 319 320 317 319 318 314 314 314 318 322 322 319 320 321 322 321 317 317 318 313 312 316 317 319 318 319 320 318 318 314 310 312 315 316 317 318 319 319 317 317 315 315
312 311 311 311 310 309 309 309 310 311 310 311 312 312 310 311 312 312 311 310 308 306 309 310 310 313 312 313 314 313 312 312 312 313 313 313 313 313 313 311 317 319 316 319 317 313 318 320 317 318 317 315 315 313 316 319 318 318 320 324 323 321 319 316 315 313 312 315 318 319 320 320 318 317 318 313 309 311 315 317 318 317 317 317 316 316 314 314
311 311 311 310 310 309 309 309 310 311 311 311 312 311 309 311 311 311 311 311 307 304 308 310 309 313 312 312 313 310 311 312 311 313 313 313 313 313 314 313 316 317 316 320 318 313 316 318 318 319 317 315 313 314 316 316 316 317 319 322 320 318 318 314 313 314 312 313 317 317 319 319 318 318 317 313 311 314 318 318 319 320 317 314 314 315 314 311
311 311 310 310 310 309 309 310 311 311 311 312 312 312 312 309 308 309 310 310 306 304 308 309 310 314 312 310 311 310 312 314 313 314 313 312 313 313 315 316 316 316 315 316 317 314 315 319 319 315 313 313 311 313 318 319 320 320 318 320 320 317 317 315 313 313 312 313 318 319 319 319 318 316 315 314 313 315 315 315 316 317 316 314 313 314 312 311
311 310 310 310 310 310 310 310 311 311 311 312 312 313 313 309 308 309 308 309 308 306 309 310 314 319 314 311 312 311 312 314 314 315 312 312 314 314 315 315 316 317 315 315 317 317 316 318 317 311 311 313 312 314 318 318 319 321 321 321 319 317 318 317 314 313 312 311 316 319 317 317 317 316 318 314 310 311 312 313 313 312 313 312 311 311 311 311
310 310 310 311 310 310 311 311 312 311 311 312 312 312 311 310 310 310 309 310 309 309 309 309 314 319 316 312 312 312 312 312 313 313 311 313 314 313 314 315 316 316 315 316 316 317 316 313 309 308 311 315 314 313 316 317 315 318 328 330 323 321 321 317 314 316 315 311 313 315 314 323 327 325 328 320 310 311 312 312 314 313 311 309 310 311 309 310
309 310 311 311 310 311 311 312 312 311 312 311 312 311 310 312 310 309 311 310 309 310 308 307 312 316 314 311 311 312 312 312 313 312 310 312 313 312 312 313 315 316 315 315 314 315 314 308 307 309 311 315 316 314 318 321 315 314 325 330 326 328 325 318 317 320 319 314 311 310 313 331 338 331 329 323 317 316 312 312 317 316 310 308 311 312 309 310
310 310 311 310 310 312 312 313 312 310 312 311 312 311 310 312 310 309 313 312 310 310 309 309 310 311 312 312 314 314 312 312 310 310 310 310 311 311 311 311 312 315 315 313 313 315 312 308 311 313 314 315 315 315 316 319 318 314 317 318 321 329 326 321 320 317 318 313 308 310 314 322 327 323 322 322 322 321 316 317 320 315 311 311 312 311 309 309
311 310 310 310 311 312 313 314 311 310 313 312 312 311 310 311 310 309 312 311 311 311 310 308 307 309 312 311 312 313 312 313 310 310 311 310 309 309 312 313 311 313 314 314 316 314 311 311 313 315 319 318 315 316 314 317 320 315 315 317 323 328 326 326 325 320 320 313 313 320 319 315 318 317 317 317 319 320 318 318 318 314 314 315 313 311 308 307
311 310 310 311 312 313 313 313 311 310 313 312 311 311 310 311 309 309 312 309 310 311 309 307 306 310 311 308 310 312 312 314 314 312 309 309 309 310 315 316 315 316 313 313 317 313 312 316 315 317 323 319 316 317 314 319 323 316 312 317 322 325 327 331 332 327 318 310 318 327 314 311 322 322 319 315 313 317 319 318 317 315 315 316 316 317 316 312
311 311 312 313 312 313 313 312 310 311 312 311 311 311 310 310 307 309 312 308 309 311 308 307 308 310 311 309 312 313 312 314 315 313 309 309 308 309 313 313 314 316 311 314 321 315 312 314 313 317 320 317 316 315 314 322 324 314 309 315 317 320 325 326 327 326 316 313 325 326 312 311 319 325 325 314 311 318 320 319 319 318 317 317 320 324 324 323
313 313 314 314 312 313 315 313 311 311 312 311 311 311 309 310 309 309 308 308 312 312 307 307 309 312 312 310 312 313 314 315 314 313 312 312 311 309 309 309 314 319 317 321 324 317 312 310 311 314 315 314 314 313 312 316 315 311 315 319 317 321 326 325 326 322 313 320 328 319 313 312 311 323 328 314 312 317 317 320 322 321 321 320 323 326 328 331
314 314 315 315 314 313 315 314 312 312 313 311 310 309 309 313 315 311 307 310 315 311 307 308 309 311 312 311 313 313 315 316 314 313 314 313 312 312 311 309 315 322 321 322 320 316 314 312 313 314 312 313 316 316 311 310 312 315 323 323 315 321 325 325 328 320 313 326 325 313 312 311 309 321 324 316 317 315 313 317 322 323 322 321 325 328 329 334
315 316 316 316 315 314 316 316 313 312 312 310 310 311 311 312 313 312 309 309 312 312 310 311 310 311 312 313 315 315 316 317 314 314 317 315 313 313 314 315 319 319 316 318 319 317 317 316 314 313 312 313 319 321 313 312 317 318 319 321 319 321 320 323 330 321 317 324 315 309 312 310 311 317 315 316 317 313 313 315 318 321 319 321 325 324 327 336
317 317 317 316 316 316 317 315 312 312 312 309 311 316 318 313 310 311 312 311 311 311 312 313 312 312 312 313 315 315 316 315 313 313 315 316 314 312 314 316 319 319 317 319 321 317 319 321 316 314 315 313 316 320 316 316 319 314 314 319 321 321 316 319 323 315 315 320 311 308 312 313 315 313 311 315 311 310 315 314 315 316 316 318 320 320 327 336
318 318 317 317 317 318 316 313 311 311 310 309 310 314 315 313 312 314 314 312 313 313 313 314 312 310 312 313 314 315 315 313 312 314 314 314 314 314 314 312 313 322 323 320 320 319 319 320 319 317 316 314 314 316 321 322 318 314 314 315 317 325 324 320 321 319 320 320 313 308 312 322 320 310 311 315 311 313 315 313 312 314 316 316 312 316 327 333
318 317 317 317 318 318 317 315 314 312 310 309 310 311 309 311 314 315 312 312 315 315 313 312 310 311 312 313 312 313 316 315 312 314 315 314 314 314 315 311 311 321 322 316 316 316 316 317 318 316 313 314 315 315 318 320 316 314 312 311 313 322 325 316 313 318 317 315 315 312 315 325 319 310 312 311 311 313 313 313 314 318 322 319 315 318 326 331
317 317 318 317 317 318 317 317 317 314 310 309 310 310 309 312 316 317 312 313 316 313 311 311 312 313 312 311 313 312 313 317 315 314 314 315 314 313 313 312 312 315 316 317 318 316 315 314 314 315 313 312 314 313 315 317 316 314 312 316 317 316 323 318 307 309 310 310 315 314 316 321 314 312 317 314 312 314 313 317 319 322 325 324 322 322 322 325
314 315 316 316 317 318 317 317 317 314 312 310 309 310 312 314 316 319 317 313 313 311 311 312 312 313 312 311 314 313 313 317 315 314 315 314 314 314 314 314 313 312 313 316 318 317 319 317 313 315 315 311 309 313 316 314 314 317 317 319 314 310 317 319 312 316 315 314 318 315 314 318 314 314 320 316 312 314 316 319 320 322 322 322 325 320 315 319
312 313 313 314 315 316 317 317 315 316 316 311 309 313 318 317 315 319 318 311 310 313 315 315 312 312 312 312 313 312 313 316 314 315 315 313 314 315 315 314 312 311 311 312 313 314 320 319 313 312 316 313 311 314 315 312 310 316 320 315 313 316 319 315 312 319 317 313 320 320 313 311 312 317 322 315 313 319 318 316 317 320 320 324 325 316 313 318
312 314 313 312 314 315 317 316 315 319 318 310 307 312 318 319 316 318 317 313 316 316 313 316 315 312 311 311 313 312 311 314 314 315 315 313 314 314 313 313 313 311 309 311 313 312 316 319 313 311 312 314 315 315 316 316 311 310 311 309 315 324 322 316 314 316 316 313 318 322 319 316 314 317 320 312 315 324 322 317 319 319 321 324 320 315 316 321
312 315 314 312 314 315 315 315 316 320 318 311 310 312 316 318 317 316 314 315 319 315 313 320 318 313 313 312 311 312 313 314 313 314 315 312 312 312 311 312 313 311 309 311 315 313 312 312 312 312 312 314 318 317 317 317 313 312 311 310 315 316 314 315 314 314 318 319 319 319 318 322 320 316 316 313 315 322 321 320 320 320 325 326 318 318 320 320
312 316 314 312 314 314 314 317 317 319 318 315 316 318 318 318 317 316 314 315 318 315 316 323 320 316 316 313 311 312 313 315 313 314 315 312 311 312 312 311 312 311 310 310 313 315 313 311 316 318 315 316 319 316 313 315 314 313 313 313 315 314 314 316 314 312 313 315 320 318 313 320 325 318 314 314 314 315 316 317 319 320 324 323 320 323 324 323
312 314 312 312 314 314 315 318 316 315 318 317 317 319 318 317 316 316 314 315 319 317 316 321 322 321 319 316 315 314 314 315 314 314 316 314 312 313 314 314 314 310 311 312 312 315 317 319 322 322 319 318 315 310 309 313 314 312 313 315 315 313 316 318 318 316 312 309 313 315 315 319 321 314 311 313 311 310 311 315 316 317 320 322 325 328 327 326
313 312 311 311 312 313 315 317 314 315 317 316 315 315 315 317 317 314 314 316 319 320 321 324 322 318 317 318 316 314 313 314 313 314 317 314 311 313 314 317 316 311 311 312 311 313 316 319 319 318 321 321 316 311 310 311 312 313 315 317 315 314 318 324 325 320 316 314 313 313 315 316 316 317 316 315 314 314 314 316 316 316 321 327 328 327 326 325
312 311 311 310 310 312 314 315 314 315 314 313 316 315 314 317 317 315 316 319 321 323 324 323 318 315 316 317 317 315 314 314 312 313 316 315 312 312 314 316 314 310 312 314 313 311 313 317 317 316 319 320 318 317 316 314 314 316 319 317 315 317 318 318 318 314 313 318 318 316 316 314 317 321 318 316 317 318 317 317 317 318 320 323 325 327 327 329
310 310 309 308 309 311 313 313 313 313 312 314 317 316 315 316 316 317 318 319 320 321 321 318 316 318 319 317 318 318 316 315 315 314 315 317 315 313 314 315 312 312 320 322 318 312 313 316 317 314 314 315 315 316 317 317 315 316 319 317 313 316 316 314 316 315 314 318 317 315 314 312 315 319 314 313 318 317 316 317 317 320 323 322 325 331 334 335
311 310 309 309 309 311 312 313 313 312 312 314 316 315 316 317 315 316 317 316 316 318 318 316 316 320 321 318 320 320 317 317 317 316 318 320 319 316 313 313 314 316 321 321 317 316 319 317 314 313 313 312 312 316 319 321 318 316 318 318 314 314 315 316 319 318 314 315 315 314 314 312 314 316 314 316 318 318 318 319 319 321 324 324 325 331 334 333
309 310 309 309 311 311 311 312 313 312 311 314 315 314 315 317 316 316 315 315 315 317 318 316 316 319 321 320 321 321 319 318 318 318 320 319 318 315 311 312 315 316 316 315 314 318 320 317 313 313 314 312 311 317 320 320 319 318 318 317 316 314 314 315 316 314 313 314 314 314 313 312 312 315 318 320 320 319 319 321 322 321 321 321 320 323 328 329
306 307 306 306 309 311 310 311 312 312 312 313 314 313 314 316 317 317 315 314 315 316 317 317 317 319 320 320 321 320 319 319 319 318 318 316 316 316 313 313 313 312 314 314 315 319 319 316 315 313 312 313 314 317 319 317 318 318 316 317 316 314 314 314 314 314 314 314 314 313 314 314 312 312 316 317 317 319 318 317 318 318 320 321 319 321 327 330
303 305 304 303 307 309 310 310 311 312 313 312 313 313 314 315 315 315 315 314 315 315 317 319 318 318 320 320 321 321 319 319 320 319 317 317 318 318 318 318 314 312 314 315 315 318 318 319 320 315 311 314 316 318 319 318 317 316 316 317 315 313 314 313 313 313 313 313 314 314 315 315 311 311 313 313 313 316 316 315 316 318 321 323 323 324 326 327
302 303 303 304 306 307 308 311 311 312 312 312 312 313 313 314 315 316 315 315 317 316 315 317 317 317 318 319 320 320 319 319 321 320 318 318 319 318 319 320 316 314 316 316 316 315 313 317 320 316 314 317 317 318 319 318 316 316 317 316 314 313 313 312 313 313 313 313 313 313 314 314 311 312 315 314 314 312 312 314 318 320 321 321 321 322 323 324
299 299 300 305 307 305 307 310 311 312 312 311 311 312 312 313 313 315 315 314 316 317 315 315 316 316 315 315 316 317 317 318 321 322 319 318 320 321 320 319 318 317 317 317 317 316 312 315 318 317 317 319 317 316 316 313 313 315 317 317 315 314 313 312 312 313 313 314 314 314 314 313 312 314 315 315 316 315 314 316 318 320 321 321 321 323 323 324
298 298 299 305 306 304 306 309 311 312 311 311 311 311 312 313 312 314 315 314 315 316 315 314 315 315 315 314 313 313 315 316 318 319 318 318 320 321 319 317 318 320 319 316 317 317 315 318 321 320 319 319 315 314 316 314 314 316 316 315 314 313 312 312 312 313 312 313 314 314 313 312 315 318 315 315 317 316 316 319 317 318 321 321 320 320 319 321
Wind_Speed
20 19 19 17 16 15 14 14 14 14 14 13 13 13 13 13 13 14 17 19 18 17 17 16 14 13 14 14 13 12 11 9 8 7 8 11 14 14 10 10 11 9 6 7 7 7 3 1 2 5 6 4 3 1 2 3 3 4 4 3 2 4 4 6 8 7 5 3 6 5 6 8 4 3 2 1 5 4 1 3 3 2 2 3 6 5 7 21
19 18 18 16 14 14 15 14 13 13 13 13 14 13 13 12 12 14 17 18 18 17 16 16 14 14 14 13 12 10 9 8 5 7 14 16 11 12 13 11 11 9 7 7 8 9 5 2 3 6 5 3 2 2 2 2 3 4 3 3 3 6 5 5 8 7 2 2 6 4 4 5 5 5 3 2 1 2 1 3 4 4 5 3 4 3 16 23
18 18 18 15 14 14 15 14 13 13 13 13 14 13 13 12 12 14 17 18 18 16 15 15 14 14 13 13 11 9 7 3 1 8 18 18 12 11 12 11 12 9 7 8 8 8 7 7 8 7 5 3 1 2 3 2 2 3 4 2 5 6 4 4 6 7 4 3 7 5 3 2 3 3 2 4 2 1 5 5 1 4 8 3 2 9 19 21
19 20 20 17 15 15 13 13 13 13 13 13 13 12 12 12 12 15 16 18 17 15 15 14 14 14 13 12 10 8 5 2 3 9 14 16 15 12 11 11 11 9 8 8 8 6 7 10 8 5 5 3 3 3 3 1 0 2 4 3 5 3 1 2 5 6 4 5 7 6 4 1 3 2 2 6 5 3 7 8 8 9 9 6 4 9 17 18
20 20 20 19 16 14 13 13 14 13 13 12 12 11 12 11 12 15 16 17 16 15 14 14 13 13 12 11 10 9 7 2 4 7 11 15 16 12 11 11 11 10 9 10 10 8 8 8 6 5 4 2 2 3 1 1 2 2 1 4 4 2 2 1 3 3 3 4 6 7 6 4 2 1 3 9 7 6 7 7 10 10 9 10 9 12 14 15
21 19 19 20 15 14 14 13 13 13 12 11 12 12 11 9 11 15 15 16 16 15 14 13 13 12 12 10 10 10 7 1 2 4 11 16 15 12 11 11 10 10 11 11 11 8 6 4 5 4 3 3 3 3 2 2 2 2 1 1 3 3 1 1 2 2 3 6 7 7 5 4 4 1 2 7 8 7 5 4 6 6 8 11 12 14 13 12
22 19 18 19 15 15 15 13 13 13 12 12 12 12 9 8 11 14 14 15 15 14 13 12 12 12 11 9 9 5 2 4 2 5 11 15 14 12 11 11 10 12 12 12 10 6 5 5 4 4 4 4 3 3 2 1 5 4 1 1 1 2 1 2 2 1 3 6 6 5 4 4 5 3 2 5 11 7 3 3 2 7 11 12 11 12 13 15
21 19 18 18 18 17 15 13 13 13 12 12 11 10 8 7 10 13 13 14 14 14 13 12 12 12 11 10 7 2 2 4 1 7 10 12 13 11 11 11 12 13 12 12 10 8 6 6 5 4 4 2 4 3 2 3 5 4 3 2 2 0 3 3 2 3 3 3 1 4 5 2 5 4 2 7 11 7 3 2 4 7 10 10 10 11 12 13
21 20 18 17 19 18 15 14 14 14 12 11 10 8 7 6 9 11 12 12 13 14 13 12 12 11 12 9 6 2 4 4 4 8 9 10 11 11 11 10 13 12 11 10 10 10 6 4 5 4 4 3 5 4 2 3 1 2 4 2 3 1 5 3 3 5 3 1 2 5 2 3 2 1 3 8 8 5 1 6 5 7 8 8 9 11 11 11
21 20 17 17 20 19 17 17 15 13 12 12 10 7 6 7 8 10 12 12 13 13 12 13 12 12 12 7 5 3 4 2 6 9 9 9 10 12 11 10 12 12 11 8 8 11 6 6 7 5 6 3 4 4 2 4 3 3 6 5 5 2 4 3 3 5 3 1 2 5 2 3 1 1 4 5 4 3 3 6 4 7 8 9 8 9 12 12
21 19 17 19 22 21 19 18 15 13 12 11 8 7 7 7 8 10 11 12 13 13 13 13 12 12 10 5 5 4 3 2 7 8 9 8 8 11 10 10 11 10 10 7 8 10 5 9 11 5 2 2 4 3 1 3 4 4 6 5 7 5 3 5 4 4 3 2 2 5 3 4 2 1 6 5 6 2 5 4 4 6 6 7 7 7 9 12
21 19 18 19 21 21 21 18 15 14 13 10 7 6 5 6 8 9 11 12 12 13 13 13 13 13 7 2 4 5 3 3 7 8 8 7 8 9 8 8 8 7 9 6 7 7 6 13 13 7 1 4 5 2 2 3 5 3 4 4 6 8 4 5 2 4 2 2 3 2 1 5 3 5 8 5 5 3 4 3 4 5 5 5 6 5 6 10
21 20 19 19 18 19 20 19 18 15 11 8 6 5 5 7 8 8 10 12 12 13 13 12 14 13 5 0 4 7 4 4 7 8 8 8 8 8 7 7 7 6 7 7 9 8 8 13 11 7 3 6 4 2 4 5 4 2 3 5 2 6 4 4 3 3 1 1 5 1 1 7 7 9 7 4 5 4 1 5 5 5 5 4 5 5 6 8
21 20 20 19 17 17 18 19 19 13 9 8 7 6 6 7 8 8 10 11 12 13 12 12 13 10 3 2 4 5 6 4 7 8 7 8 9 9 7 6 7 6 5 7 10 8 8 11 11 8 3 4 3 2 5 6 4 2 3 3 2 1 4 6 4 2 3 0 5 5 2 6 8 8 7 6 3 2 4 7 6 6 5 5 5 5 7 8
22 21 20 19 18 17 16 17 16 12 10 9 7 6 6 6 7 8 9 11 11 11 11 11 12 8 2 3 3 4 6 5 8 8 7 9 9 8 6 7 8 7 7 8 10 10 9 12 11 6 1 2 4 6 5 4 4 4 2 2 3 3 5 7 3 1 3 1 5 6 2 6 7 8 7 6 3 4 6 7 6 7 6 6 5 6 6 8
22 22 20 19 18 17 15 16 14 12 11 9 6 6 6 6 7 7 9 10 9 10 10 8 10 7 2 2 1 2 5 5 8 8 7 8 8 7 9 11 10 9 9 10 12 11 9 9 6 3 3 3 5 7 4 3 3 4 3 2 2 3 3 4 1 3 1 0 4 3 3 4 3 6 7 5 5 4 4 7 7 7 7 6 5 6 6 7
23 22 20 18 17 15 15 15 14 13 11 10 8 6 6 7 7 8 8 9 9 9 8 6 8 5 1 1 1 2 3 5 9 9 7 7 7 10 12 9 7 9 11 10 9 7 6 6 2 0 4 3 3 6 5 0 3 2 3 2 3 3 3 2 2 4 4 2 1 2 2 6 6 7 8 5 3 3 4 7 8 7 6 6 6 6 6 7
22 21 19 18 16 15 14 14 14 13 12 11 10 9 10 10 9 8 10 12 10 7 4 3 5 3 3 3 3 3 3 7 11 9 8 7 8 11 9 6 5 8 8 5 4 3 4 4 3 2 4 3 2 5 5 5 5 5 3 2 2 2 3 3 3 2 4 3 2 1 3 9 10 9 9 6 1 2 6 7 7 8 7 7 6 6 7 7
22 20 19 18 17 16 15 15 15 14 13 14 14 15 15 12 10 7 7 9 6 4 2 3 5 4 4 4 2 3 6 10 11 7 7 8 9 9 8 7 6 7 5 3 2 2 2 3 4 4 3 3 5 6 7 7 8 9 6 5 5 3 4 5 4 4 1 3 3 4 4 8 10 10 10 6 2 3 7 6 6 8 7 8 7 7 7 8
22 21 20 18 17 16 15 16 16 15 15 18 19 16 11 8 6 3 2 2 2 2 2 4 5 3 1 1 2 8 9 8 5 4 7 8 9 10 7 5 5 6 4 4 2 1 3 4 3 5 7 8 7 6 6 5 7 8 6 5 4 3 2 4 3 5 1 3 3 3 3 8 10 11 12 7 1 3 8 8 8 8 7 8 8 8 9 10
23 21 19 18 17 17 17 17 16 16 17 21 21 10 4 6 4 4 4 2 3 2 2 3 4 3 1 2 5 8 6 4 3 3 6 6 8 9 2 3 5 3 1 3 3 2 4 5 7 6 7 7 6 6 7 6 7 6 6 5 2 2 2 3 2 4 3 1 3 2 3 9 10 10 11 8 4 6 9 9 9 10 9 8 8 10 11 9
22 20 19 19 18 18 18 18 16 16 16 19 15 2 2 4 3 8 8 2 3 1 2 1 3 3 2 3 5 2 3 4 3 2 3 4 4 4 1 4 6 3 1 2 4 3 2 4 8 6 6 8 7 6 8 7 6 5 4 6 3 2 2 3 3 5 5 0 3 4 5 9 10 10 11 10 8 8 8 8 9 9 9 9 8 10 10 9
20 20 21 20 19 19 18 17 16 16 17 18 12 4 2 2 5 11 7 4 2 1 2 1 3 3 2 1 5 2 4 4 4 2 2 4 3 2 4 5 5 5 2 4 6 5 4 5 6 6 8 10 6 4 9 8 5 4 4 5 3 2 1 1 2 4 4 2 1 2 4 8 8 7 9 9 6 6 6 7 8 8 10 11 9 7 8 10
20 22 23 22 20 19 18 17 15 15 17 18 15 8 2 2 10 11 3 4 2 1 1 0 2 4 3 3 4 4 3 2 4 4 2 4 4 2 5 5 5 5 3 5 7 7 4 4 1 8 7 9 7 3 7 7 3 1 3 6 4 3 4 3 1 2 3 4 3 3 4 6 5 5 8 6 4 5 5 5 8 9 9 9 9 8 9 10
23 25 24 23 21 19 19 16 13 14 15 13 14 10 3 3 11 8 3 3 1 1 1 1 0 2 4 4 3 4 3 1 1 2 1 4 5 3 3 2 4 4 3 4 7 5 3 2 3 8 5 6 8 4 5 7 4 1 3 6 6 7 6 2 2 4 4 4 4 5 3 5 5 5 7 5 7 7 5 6 9 9 6 6 8 10 8 8
25 24 24 24 22 22 19 10 10 15 12 9 12 11 5 6 10 7 3 4 1 1 2 2 1 4 6 2 1 4 4 0 1 1 3 4 3 3 4 1 2 3 5 5 5 2 1 2 4 6 6 6 7 5 5 6 6 2 4 5 6 7 8 6 5 4 1 1 2 3 2 4 7 5 8 6 8 10 8 6 10 8 7 6 7 8 7 7
24 23 25 25 24 25 14 5 12 15 8 8 12 11 8 9 9 4 4 5 3 2 4 1 1 5 7 0 0 6 4 3 2 3 3 3 1 3 4 3 2 2 3 4 2 1 2 4 4 5 6 6 6 4 5 7 8 3 3 6 8 8 8 7 6 4 2 3 4 4 4 2 5 6 7 5 7 11 10 9 9 7 7 8 7 8 7 7
24 24 27 25 26 23 8 7 20 15 5 9 14 12 10 10 7 1 4 3 2 2 3 1 0 4 3 2 3 5 2 2 5 1 2 4 1 4 4 5 5 4 1 4 4 3 2 4 5 5 6 4 4 3 4 7 6 3 2 6 7 7 7 5 6 4 0 1 4 5 2 1 6 7 5 5 4 9 10 10 9 8 8 8 7 8 7 7
24 25 25 24 25 18 4 11 21 11 7 13 15 14 12 10 5 3 3 2 1 2 1 1 3 2 1 3 5 4 1 2 3 3 2 5 3 4 4 4 6 7 3 4 6 2 1 3 6 5 5 4 2 1 1 4 3 3 5 8 7 7 6 5 5 4 2 2 4 5 2 0 5 7 4 2 2 7 8 8 7 7 7 7 7 7 7 6
26 25 24 23 23 16 7 10 15 10 10 14 15 15 13 8 3 4 2 3 2 2 1 1 2 2 5 5 3 4 2 2 1 1 2 2 4 6 3 3 6 7 4 6 4 1 2 1 1 3 3 4 4 3 2 3 4 7 6 7 7 6 6 4 3 4 4 2 6 6 3 0 3 6 4 3 4 5 4 5 7 6 7 7 6 6 6 6
26 25 25 23 20 17 10 7 13 13 11 15 17 15 10 4 2 4 5 2 3 2 1 1 1 4 10 10 3 0 3 2 1 3 3 1 4 4 2 2 4 5 3 4 3 4 4 3 0 1 2 4 6 5 5 4 4 6 4 5 5 4 5 4 5 4 2 4 6 4 3 1 3 6 4 4 6 6 4 5 6 6 8 8 7 7 7 6
25 24 24 22 18 16 9 7 15 16 13 17 16 9 6 4 2 5 3 1 2 3 4 3 2 5 9 6 4 3 3 2 1 3 5 3 3 3 3 4 4 4 1 3 1 3 3 1 2 1 0 3 6 5 4 5 4 5 5 6 5 2 3 3 3 1 2 5 4 2 1 2 5 8 8 10 10 6 7 7 7 7 8 9 8 8 7 6
24 24 24 21 18 13 7 10 16 16 18 19 10 4 5 4 6 6 3 2 2 1 3 4 1 5 9 6 4 3 3 2 2 2 2 3 4 3 1 2 5 5 3 4 3 2 1 4 2 2 1 2 4 5 3 2 0 4 5 5 4 3 2 2 4 2 3 4 3 3 2 2 5 5 9 14 11 5 6 7 7 7 8 9 9 8 8 7
21 22 24 21 16 11 9 13 16 17 21 15 5 5 5 6 6 4 4 4 1 2 2 4 6 6 6 5 4 4 3 1 2 4 2 3 5 5 4 3 3 5 4 3 3 5 3 4 3 3 2 2 3 4 6 6 3 2 3 5 5 5 4 4 4 3 4 3 3 3 1 3 3 2 6 10 8 5 5 6 5 7 9 8 7 7 8 8
21 22 24 19 14 11 10 14 15 17 17 8 4 6 8 8 4 3 6 5 1 2 3 3 8 8 3 2 0 4 3 1 2 4 4 4 5 6 6 5 4 4 6 5 3 2 4 4 4 2 2 3 3 2 3 7 3 1 2 5 3 4 5 3 3 5 3 1 2 2 3 5 4 6 8 5 6 7 5 5 4 6 8 6 4 5 6 7
22 21 20 15 13 12 11 12 13 13 11 6 5 8 7 5 3 3 5 4 3 6 7 4 4 5 3 1 1 4 1 3 3 3 3 3 3 5 5 4 5 5 5 6 3 2 3 2 4 3 2 2 1 2 2 3 3 2 2 3 4 4 8 5 1 0 3 1 3 1 4 6 4 7 9 5 6 8 5 5 5 6 7 5 4 4 5 6
19 16 13 11 12 14 12 10 12 11 7 5 7 8 3 1 4 3 2 4 5 7 10 6 2 4 6 4 5 6 2 3 4 3 3 2 2 5 5 3 4 8 6 4 3 3 5 1 3 2 2 2 1 2 4 3 3 5 3 5 4 3 5 4 1 3 4 2 4 1 4 5 2 4 7 7 5 9 7 6 6 6 6 5 5 5 6 7
14 9 5 7 11 14 12 10 10 7 5 4 7 4 1 1 2 3 2 3 6 5 6 6 3 3 6 7 6 7 6 4 5 4 4 3 4 5 8 4 3 7 7 3 2 2 5 3 3 2 2 3 4 3 3 4 3 4 4 3 4 3 2 2 2 1 1 2 4 4 4 4 4 5 5 3 3 8 8 7 5 6 6 5 5 6 7 7
9 5 3 5 10 13 13 11 7 5 4 6 8 4 2 2 0 2 3 2 4 5 5 5 2 2 4 6 6 6 6 6 8 6 4 4 4 4 7 5 2 6 7 5 3 2 4 3 2 1 1 2 3 1 4 1 4 3 2 3 3 3 4 2 3 3 3 3 3 4 4 3 6 6 5 7 7 7 7 7 6 7 7 5 5 5 6 5
4 3 1 5 10 12 14 11 5 3 4 6 6 3 1 2 1 3 2 2 2 2 3 4 3 3 4 3 3 4 4 5 8 6 4 5 4 4 5 4 4 6 5 5 4 3 3 3 3 2 3 1 1 3 6 7 3 3 3 3 2 2 2 2 0 2 4 4 2 2 4 5 6 4 7 10 9 8 7 6 7 7 6 6 5 4 3 2
1 2 1 3 9 13 13 8 3 4 4 2 3 3 1 2 3 1 2 2 3 1 2 4 4 4 5 3 2 4 4 4 6 5 3 5 5 3 3 3 7 8 5 4 3 3 2 3 4 2 0 4 4 3 4 6 6 6 5 6 6 4 4 3 2 1 2 3 4 3 4 7 6 4 7 8 6 7 6 5 6 5 5 6 5 3 2 1
2 3 1 1 11 15 10 3 1 2 2 2 3 3 2 2 3 1 2 2 3 1 2 4 3 2 3 3 2 5 6 4 5 5 3 5 5 3 1 0 6 10 8 4 2 3 3 4 4 2 3 5 4 3 2 2 2 3 3 4 5 4 5 6 5 3 1 1 2 3 2 8 5 3 5 6 5 5 5 5 5 4 4 5 4 4 3 3
3 2 1 1 9 13 6 2 2 2 1 2 1 3 3 2 2 1 0 2 2 2 3 2 2 2 2 2 3 6 6 4 5 5 2 3 3 1 1 1 5 9 8 3 2 2 2 4 4 0 3 3 4 4 2 2 2 1 2 2 5 3 3 5 5 4 4 3 3 3 2 7 6 3 2 5 5 4 4 5 5 3 3 4 4 4 4 5
2 2 1 3 2 6 4 2 3 3 2 1 2 3 2 2 3 3 2 1 1 2 2 1 2 1 2 2 3 5 5 3 5 4 2 2 2 1 3 1 4 7 5 2 4 5 3 2 5 3 2 3 4 3 3 2 1 3 3 2 4 4 6 4 2 3 2 5 7 5 5 6 5 5 4 4 4 2 4 5 5 3 3 4 5 5 5 5
2 2 1 3 3 1 2 1 2 4 3 3 4 3 2 2 1 2 4 2 1 3 3 1 1 3 2 2 3 2 1 2 3 3 2 1 1 2 4 2 2 4 2 2 1 5 5 3 5 6 6 6 6 4 4 3 3 2 2 3 5 6 8 5 2 3 3 5 7 6 7 6 3 6 5 4 3 2 3 5 4 4 4 6 6 5 4 5
2 2 1 1 2 1 0 1 4 4 3 4 4 3 4 3 1 1 3 2 1 2 3 1 2 3 3 2 4 2 1 2 2 3 3 2 2 2 3 3 2 2 1 2 2 4 4 2 5 8 10 11 9 5 4 7 6 5 6 7 8 8 9 7 4 4 7 4 4 8 11 9 6 4 4 5 4 5 4 4 5 5 6 7 5 4 5 5
1 2 3 2 1 2 2 1 4 4 4 4 3 3 5 5 1 1 1 1 2 2 3 2 2 2 3 4 4 2 2 2 3 2 3 2 2 2 3 2 4 2 1 2 2 3 4 2 6 8 10 9 5 4 5 7 9 11 11 10 10 10 11 10 8 12 9 3 5 11 8 10 13 7 6 9 6 6 7 7 7 6 6 6 4 4 6 6
1 1 1 1 1 3 4 4 6 6 6 6 3 3 6 6 4 3 1 1 1 2 2 1 1 3 5 6 4 3 3 2 1 2 2 1 1 2 3 2 2 3 2 2 2 3 5 4 4 5 9 8 3 3 5 6 7 8 10 12 13 12 13 14 16 17 11 7 13 13 9 12 18 10 10 11 8 8 9 8 6 5 5 4 2 3 6 6
1 1 1 2 1 2 2 5 7 7 8 8 3 3 7 8 6 4 2 3 2 1 3 3 3 5 6 5 5 4 4 4 2 3 3 2 3 3 2 1 1 3 3 3 0 2 4 3 2 4 6 8 4 4 5 7 6 5 7 11 13 14 16 18 19 20 15 12 16 13 8 14 17 8 10 11 7 7 6 3 3 5 5 4 3 4 7 6
1 1 1 2 2 1 1 5 8 6 6 8 5 3 6 9 8 4 3 4 4 3 4 5 5 7 7 6 5 4 6 7 5 4 5 4 3 3 2 3 2 2 3 2 1 1 3 2 2 4 2 6 4 5 5 6 7 6 7 8 9 12 15 17 17 16 11 10 15 14 11 14 11 5 8 7 4 4 4 4 6 7 6 4 4 6 7 7
2 1 1 3 2 1 1 3 6 6 4 6 6 5 6 9 9 6 2 3 5 6 7 8 7 6 5 5 5 7 7 6 6 6 7 7 4 4 3 3 5 4 2 1 2 2 3 2 2 4 3 5 2 6 5 3 3 3 7 8 11 12 12 12 12 11 10 12 14 13 12 14 8 6 6 5 5 6 8 9 9 7 6 5 6 7 7 7
2 2 1 3 2 0 1 2 5 6 4 5 6 5 5 7 7 8 3 3 3 5 7 9 8 5 4 6 10 11 8 5 6 4 4 4 4 3 2 3 5 6 5 3 2 2 4 3 2 3 4 4 2 5 7 6 4 4 10 13 16 13 10 8 8 11 14 13 11 10 13 14 6 6 7 6 6 9 9 8 8 7 7 6 7 8 8 7
Wind_Direction
185 182 184 184 183 182 185 191 193 194 194 195 196 196 197 196 197 198 198 199 200 200 204 208 207 199 199 207 212 217 219 223 230 212 209 235 236 231 241 232 212 212 204 187 180 177 158 94 141 112 109 79 19 358 43 21 59 57 78 104 153 174 204 184 176 191 170 197 204 201 177 162 193 206 184 62 47 58 38 313 306 301 264 241 274 300 163 163
180 178 182 181 181 185 190 194 193 193 194 193 194 195 197 198 199 197 194 196 198 200 201 203 204 196 197 203 207 214 217 223 234 231 231 235 237 228 233 229 207 208 196 181 189 180 158 182 160 100 74 54 3 15 56 3 61 86 107 110 209 196 204 192 172 183 173 170 172 174 172 177 195 168 146 178 317 35 149 272 339 322 267 294 308 173 157 162
178 178 181 181 181 186 191 193 192 193 193 193 196 193 195 198 197 195 193 194 196 198 200 201 201 194 195 197 200 211 202 197 276 253 242 231 229 224 219 217 205 202 191 181 191 189 176 171 148 106 60 63 14 23 74 14 40 140 117 111 239 213 212 213 177 184 205 159 144 159 165 185 228 160 155 178 174 184 201 226 233 259 247 260 296 156 157 162
180 185 191 189 185 187 188 190 192 193 194 195 198 192 192 195 193 192 192 193 195 197 198 199 198 193 194 192 193 195 164 61 273 236 236 224 218 217 208 205 195 189 187 175 171 173 160 144 122 86 72 67 347 19 98 350 312 137 122 175 233 205 167 206 192 200 204 164 143 145 131 159 234 180 154 144 137 259 243 223 199 209 208 183 196 168 162 165
183 190 194 192 190 189 189 190 191 192 194 195 194 193 194 194 191 190 190 192 194 195 196 196 195 191 190 188 187 179 141 61 255 212 210 206 204 205 197 191 183 178 176 164 156 143 136 128 92 64 70 80 17 49 119 311 79 108 157 194 207 169 100 210 211 203 170 139 125 130 147 175 175 140 151 151 168 234 237 223 209 204 183 166 172 171 168 170
185 190 189 189 191 189 190 191 191 192 192 190 192 196 194 191 188 188 190 191 192 193 194 195 192 187 186 188 185 174 155 195 282 180 183 184 187 192 183 181 176 173 171 160 152 134 117 92 81 92 71 78 108 113 170 316 53 127 277 278 212 211 80 329 286 241 150 130 142 155 170 146 121 214 178 174 208 221 219 237 224 198 166 160 159 162 170 176
186 187 185 189 191 189 191 190 191 193 190 187 195 199 192 189 187 187 189 189 190 190 190 193 189 183 182 177 169 157 185 261 310 159 175 171 176 181 175 178 171 172 172 158 147 129 110 96 111 140 91 87 142 127 144 21 47 100 174 307 212 212 354 318 315 241 152 146 178 168 131 126 158 194 92 214 235 232 243 298 226 164 147 150 155 167 179 183
187 187 189 193 192 190 190 190 191 191 189 190 197 199 193 193 186 184 187 187 187 186 187 188 186 182 174 164 149 115 263 258 190 164 174 167 170 174 173 175 168 172 173 166 159 145 129 124 149 156 95 127 153 118 113 82 46 88 163 202 124 89 316 321 46 75 106 132 161 116 114 200 197 162 112 240 248 258 271 41 100 137 139 155 167 179 186 188
186 188 193 193 190 189 189 190 191 189 188 193 200 200 197 196 185 181 182 184 185 184 183 183 187 180 171 160 122 135 231 234 182 172 173 170 170 171 173 173 170 172 167 172 173 156 152 157 182 183 140 157 132 115 120 119 209 166 139 146 105 6 322 340 70 45 47 73 58 115 91 311 217 148 269 249 257 285 347 88 109 135 148 176 178 185 189 192
189 191 194 188 186 188 190 190 187 186 189 197 203 204 202 195 184 181 179 182 184 183 180 181 187 179 173 156 106 171 241 218 184 178 173 176 172 170 173 171 170 172 160 158 168 161 171 181 177 164 133 124 109 109 132 142 180 137 112 102 70 4 324 12 82 15 10 45 36 145 165 306 285 336 262 261 310 313 106 101 134 154 173 193 188 194 194 199
191 192 190 185 187 189 192 192 186 184 192 199 206 208 207 197 186 185 182 182 183 182 181 180 183 180 177 145 127 199 253 192 185 177 174 179 176 173 170 166 165 170 161 144 168 175 182 170 151 124 123 142 114 83 114 139 110 109 118 95 13 352 351 27 72 5 3 86 33 129 149 307 346 257 233 263 329 319 141 134 167 178 200 204 199 205 201 212
191 190 188 188 191 192 192 194 190 188 193 200 205 201 199 196 192 191 184 182 182 182 182 180 179 178 172 116 173 217 237 190 186 175 177 178 174 171 157 158 160 171 172 154 174 178 166 161 134 96 144 145 126 103 146 106 88 110 108 108 347 357 9 357 31 330 358 100 335 86 77 296 240 232 243 275 342 41 126 183 215 212 229 225 219 221 214 223
190 190 190 190 192 193 192 196 198 195 195 197 191 185 192 195 195 194 184 181 181 181 183 180 177 173 158 143 217 219 217 195 186 177 177 176 168 158 147 158 157 163 179 169 164 150 148 158 126 101 121 108 124 168 123 68 65 124 62 104 24 7 348 322 346 322 71 87 325 85 203 279 252 253 264 303 353 49 133 234 243 238 243 248 241 236 235 231
191 192 192 192 192 191 194 200 202 199 194 188 179 182 194 193 195 193 180 179 179 178 182 179 172 165 157 239 225 211 210 194 184 181 176 175 159 141 137 152 155 153 160 157 151 137 144 145 109 98 101 87 133 117 62 27 32 86 52 67 60 114 261 302 332 349 133 2 354 100 181 271 265 276 291 314 338 140 232 256 256 257 253 248 243 240 246 239
191 192 194 194 193 193 197 200 200 197 189 181 178 191 195 188 192 187 174 175 173 173 176 173 171 157 119 263 251 199 200 181 177 183 175 170 156 136 131 137 137 131 130 135 133 127 134 126 97 88 71 20 97 91 47 19 28 44 98 310 345 170 254 309 334 43 153 268 26 96 204 273 268 275 291 328 32 160 235 266 270 269 262 250 245 240 247 252
190 193 196 195 196 199 196 192 191 191 183 175 180 196 187 175 175 168 168 168 161 165 163 163 177 162 116 229 230 169 186 174 172 176 166 168 162 141 130 124 115 112 117 114 114 112 102 95 74 84 109 64 90 99 69 42 8 6 105 196 269 176 259 313 337 340 26 192 10 75 216 272 282 272 285 339 54 102 249 273 277 269 264 254 241 237 243 259
191 194 197 197 198 196 187 185 186 183 179 172 172 173 155 147 152 150 151 147 142 151 151 163 178 166 110 175 165 202 189 163 165 163 155 158 156 143 131 114 95 101 106 103 106 93 55 55 57 74 70 65 105 101 89 100 254 304 54 124 233 194 214 282 275 322 23 102 266 20 247 250 270 280 289 309 49 49 279 272 280 274 270 259 243 244 241 246
191 194 197 198 197 191 184 182 180 178 173 163 152 139 128 122 124 127 132 132 122 115 120 170 156 151 249 211 183 209 162 145 150 146 141 136 140 143 129 108 106 101 90 75 71 54 27 31 67 99 50 58 136 119 146 202 196 184 167 154 223 227 217 250 247 269 20 72 204 340 285 264 278 287 289 283 193 273 268 266 282 281 276 272 262 254 246 245
190 194 197 194 195 197 190 178 176 177 165 150 138 126 113 102 98 104 127 134 122 111 152 191 153 158 221 217 187 127 122 134 138 131 128 129 131 124 98 97 104 93 95 86 42 44 66 55 71 123 137 165 185 171 173 190 170 167 175 148 154 187 230 244 254 272 348 107 227 245 250 273 286 289 289 280 172 222 267 273 277 272 272 271 263 253 250 249
191 193 196 195 198 199 187 176 175 173 161 148 141 126 111 108 93 87 150 175 190 175 203 200 161 142 192 241 129 121 117 116 118 120 127 135 134 113 68 52 67 59 98 142 128 53 88 116 169 180 182 188 187 163 138 144 136 135 130 115 144 172 242 254 268 304 316 143 244 247 262 278 276 277 279 277 281 270 270 270 265 261 260 258 255 256 251 244
190 191 195 197 196 190 180 175 171 167 163 155 149 135 138 156 127 154 180 263 246 212 277 236 142 104 78 137 147 139 116 78 50 83 128 140 136 130 34 17 95 72 350 151 131 56 82 151 209 207 184 169 150 129 109 99 92 101 133 130 127 185 234 264 259 315 339 177 256 11 335 279 267 271 273 275 287 263 250 248 255 256 254 253 251 256 255 255
188 190 193 189 185 180 175 171 166 168 171 165 161 158 216 186 133 157 153 131 237 265 9 221 98 69 36 134 167 162 69 84 67 15 144 128 114 151 166 63 118 145 302 119 112 82 107 209 226 201 146 112 95 98 96 91 91 89 116 130 142 207 244 286 297 330 355 337 270 354 345 281 269 269 268 265 258 250 243 235 243 251 256 256 247 251 264 275
186 188 185 181 177 174 170 167 166 174 177 173 177 189 210 215 151 154 137 92 184 326 33 107 120 113 57 125 192 147 76 125 160 243 214 126 103 159 130 102 122 133 149 162 143 141 175 252 237 168 136 115 93 77 96 89 83 94 109 132 168 241 164 229 293 332 0 53 278 326 316 285 286 290 279 270 262 267 269 254 249 245 247 255 256 258 265 270
184 184 180 176 173 168 167 165 167 182 186 184 189 182 141 164 165 159 114 73 141 258 327 242 156 154 135 152 181 142 103 135 160 186 199 129 130 130 129 133 126 122 169 170 145 151 191 276 174 133 133 129 121 107 119 113 76 90 141 139 159 197 176 192 276 344 357 21 29 15 332 295 311 325 290 294 329 299 297 308 281 255 245 261 276 271 257 257
178 178 176 174 171 165 162 162 174 189 186 193 202 187 144 176 179 168 90 79 138 315 298 235 163 183 163 130 150 153 128 95 140 205 178 127 135 128 128 131 122 150 181 132 128 154 215 296 114 124 117 120 129 157 171 145 118 250 208 174 172 170 159 147 68 62 35 2 357 24 1 291 315 316 272 302 342 308 317 325 282 271 276 274 272 269 261 258
176 177 176 172 166 159 157 166 193 186 176 202 209 192 197 198 185 182 89 66 284 262 167 176 138 173 167 123 139 140 119 152 303 22 89 115 123 107 125 102 60 159 176 134 130 159 176 16 72 123 131 124 132 172 200 151 121 185 222 170 147 129 124 126 109 87 92 246 325 43 122 265 310 296 269 313 334 307 311 297 276 289 302 281 266 271 272 268
177 177 172 166 161 159 158 172 174 166 166 213 202 190 205 195 184 194 74 52 281 188 132 191 336 160 167 223 154 137 157 216 128 59 61 93 18 58 118 175 105 137 177 126 128 222 129 86 66 95 106 118 142 185 204 148 126 193 217 126 122 118 126 135 108 93 198 233 328 12 108 223 294 270 272 328 331 308 307 294 295 308 300 292 286 281 279 270
173 172 168 163 163 164 162 153 157 161 186 189 181 184 189 181 180 166 89 96 250 131 122 235 93 132 150 23 56 108 193 206 124 166 354 69 73 49 99 185 153 134 144 121 166 249 98 136 168 134 103 131 176 222 193 131 112 226 186 115 117 117 122 119 94 92 339 337 308 319 50 176 269 273 305 348 320 292 292 289 298 305 301 307 307 302 299 283
167 167 169 167 168 171 170 158 160 171 189 166 168 178 169 166 171 77 92 172 190 83 72 145 115 112 109 56 39 46 33 35 117 218 347 71 67 50 111 183 134 114 55 88 157 212 54 181 190 140 125 170 180 324 172 102 89 182 140 97 81 76 81 80 86 102 46 17 246 268 351 158 265 285 314 2 259 258 274 283 283 287 297 305 308 312 313 305
170 166 167 166 171 181 184 172 172 175 172 161 162 162 148 146 141 102 163 210 139 80 13 121 159 161 138 119 29 358 62 41 23 64 25 65 33 32 103 151 100 101 35 38 91 232 321 267 183 107 132 171 133 78 46 53 118 140 112 75 63 38 36 51 55 80 62 324 254 258 307 132 268 283 261 204 219 220 245 294 293 304 319 315 310 310 310 313
176 172 170 166 173 182 171 174 184 177 169 160 152 147 133 94 68 145 194 213 109 89 64 139 225 143 151 151 141 1 84 35 331 111 114 107 46 46 110 115 74 74 34 36 37 336 2 35 19 127 130 128 102 70 37 29 85 103 89 87 81 10 10 25 2 38 93 258 261 270 297 157 217 263 253 243 255 229 209 263 277 299 319 316 310 307 303 303
180 179 178 174 176 177 167 173 179 174 168 158 146 133 114 94 181 187 189 148 145 184 167 173 216 169 160 141 116 147 122 78 338 130 139 141 133 154 151 159 146 94 128 189 129 354 27 45 304 334 184 148 113 81 39 354 15 72 98 101 91 15 13 359 319 355 215 243 264 274 262 204 232 250 259 265 266 237 211 228 239 262 291 300 302 302 302 305
185 183 179 176 175 171 163 162 168 169 163 154 139 75 80 136 204 197 168 179 196 191 140 129 118 153 149 130 137 159 105 110 185 129 120 122 147 191 226 171 144 119 178 183 125 101 331 312 315 74 281 203 138 124 136 247 304 121 135 125 124 118 85 266 268 288 259 258 289 283 249 258 268 261 249 252 256 226 205 224 232 245 266 277 287 296 303 308
182 183 175 170 171 167 151 148 154 160 158 149 121 93 121 180 202 150 154 209 250 40 66 107 111 129 144 139 178 176 91 76 173 116 98 104 139 193 225 222 146 101 115 138 146 163 173 272 239 160 214 191 161 170 154 145 135 161 157 123 139 154 149 205 219 208 240 276 308 296 263 200 210 267 239 236 258 271 243 248 251 253 261 265 279 297 301 301
176 176 171 167 169 165 153 150 150 155 157 141 106 149 180 199 194 137 166 194 215 69 39 80 119 133 153 57 201 204 127 126 167 114 141 162 169 193 193 194 190 131 129 154 198 170 156 242 263 274 268 152 161 241 121 111 110 225 126 102 152 185 138 134 181 174 174 325 304 268 242 215 207 281 275 249 274 285 273 279 269 253 265 281 309 312 297 292
166 164 165 167 167 160 155 157 158 162 162 130 138 185 203 194 180 187 168 147 151 136 112 90 95 128 162 79 207 228 121 107 148 134 172 198 205 201 189 191 187 174 161 153 166 166 149 253 310 339 354 78 164 246 75 115 175 159 124 162 208 170 112 112 199 56 77 238 271 230 251 287 326 296 293 308 292 286 295 304 288 260 277 312 328 306 288 291
147 146 155 165 168 166 162 158 159 163 152 131 174 198 201 151 169 176 145 121 141 138 130 142 163 150 164 168 193 203 166 115 154 164 180 202 233 195 188 230 198 183 187 150 159 196 153 157 326 28 84 359 287 133 56 35 119 119 172 203 186 119 94 109 161 10 41 239 275 287 245 285 333 274 315 352 301 275 276 283 289 290 300 314 305 295 294 299
126 116 126 159 172 175 171 163 159 146 107 147 194 203 119 124 162 151 153 137 132 129 143 162 164 149 169 179 184 183 174 166 170 173 167 189 243 197 169 197 205 187 193 142 123 196 132 129 320 28 131 305 345 91 80 4 51 122 181 172 116 135 154 91 138 164 132 233 279 303 280 265 201 226 302 345 241 248 258 266 278 277 275 287 303 307 304 311
125 105 90 163 177 179 173 166 153 111 102 183 199 208 166 135 167 196 184 146 111 120 161 181 157 126 172 174 164 168 181 177 168 175 177 183 237 219 174 180 191 192 190 138 132 185 122 130 247 322 285 304 8 105 183 236 22 54 106 101 76 131 160 153 151 164 172 198 261 310 322 269 223 215 215 221 226 223 235 254 252 241 247 268 290 285 287 310
125 93 83 168 169 172 168 156 132 122 171 198 191 188 178 120 200 260 218 149 99 100 169 185 156 140 159 164 154 164 175 168 166 182 201 181 199 232 205 188 162 174 169 105 119 166 109 136 201 310 339 217 194 219 189 171 141 101 116 151 164 73 108 153 123 115 141 163 192 280 302 269 246 214 196 213 227 214 209 230 240 242 251 262 264 253 261 309
56 90 83 166 160 163 162 149 140 176 178 171 139 150 203 149 153 294 334 108 112 87 151 143 138 146 150 150 166 169 153 148 170 184 207 195 193 211 222 190 156 153 132 96 133 169 144 150 164 137 288 200 222 258 201 174 165 159 171 185 178 150 123 149 245 271 114 149 169 179 267 266 247 208 202 215 231 231 224 223 234 245 248 255 267 267 256 278
94 132 320 199 166 166 161 140 138 146 134 158 159 144 142 131 125 103 340 65 87 79 79 94 111 130 145 148 150 161 149 146 181 187 198 203 189 179 229 71 149 154 147 136 159 169 127 106 121 152 213 214 243 280 230 187 130 137 186 192 171 161 136 148 206 229 127 165 157 119 268 270 262 213 212 236 266 270 248 219 222 236 240 257 292 308 295 267
125 147 337 325 174 173 163 122 146 122 115 200 159 96 109 117 110 128 123 54 71 67 54 78 149 130 158 166 141 164 166 160 183 188 194 194 178 196 309 19 158 158 151 147 152 150 113 103 121 184 305 306 324 342 13 40 78 136 239 181 160 179 148 145 178 175 156 189 151 100 269 267 284 318 254 261 282 279 251 225 226 258 272 264 269 271 259 247
111 117 14 6 187 189 175 149 161 143 132 128 91 90 92 93 120 138 141 124 137 114 96 142 180 136 153 133 123 168 183 176 188 189 178 176 175 3 5 2 180 162 153 182 172 170 191 157 133 120 20 344 340 342 330 316 195 201 226 190 162 133 101 103 127 112 186 216 164 152 243 253 284 321 324 323 324 292 260 249 226 234 275 263 249 249 252 260
98 94 357 9 26 159 167 138 132 129 133 129 126 142 130 68 59 149 135 121 127 133 128 145 121 97 105 92 82 111 125 104 170 175 137 148 274 354 16 358 213 181 191 299 164 166 184 178 148 153 176 200 206 214 222 203 177 205 205 175 174 146 136 156 136 111 235 228 156 177 239 241 301 329 323 320 323 203 238 264 235 218 250 255 252 263 285 307
130 126 161 31 32 70 72 68 111 126 154 148 137 162 155 132 336 11 108 106 102 108 97 97 113 87 81 107 102 109 106 52 74 134 139 163 233 305 353 22 71 164 187 22 62 133 142 184 194 188 202 207 199 197 167 130 142 205 200 171 179 181 174 167 126 169 215 200 157 220 237 240 262 297 276 261 233 194 205 234 235 234 247 256 264 285 299 305
120 144 154 138 113 162 180 171 145 150 169 161 150 170 162 147 127 26 48 93 175 130 80 67 124 120 148 150 125 138 168 73 61 116 136 171 210 298 329 50 68 35 43 53 27 97 112 215 216 202 223 226 184 180 181 147 166 199 193 177 185 187 179 175 193 216 208 155 235 236 219 240 250 224 217 242 229 216 229 221 221 234 247 262 291 319 311 302
100 146 168 72 102 175 185 180 169 165 164 164 157 152 161 160 154 159 141 78 128 143 96 69 208 170 165 159 143 142 143 106 87 157 131 141 157 43 9 46 45 357 40 65 351 98 132 218 217 187 232 243 162 152 194 178 183 200 191 187 189 183 181 191 212 223 202 180 241 235 177 219 246 220 203 227 211 205 226 221 223 252 267 276 301 301 292 292
73 91 322 348 68 166 171 143 149 161 164 163 163 157 170 177 174 160 119 111 141 212 170 178 204 181 163 152 136 142 166 167 176 186 163 144 140 111 77 109 13 3 58 98 341 120 147 219 195 158 231 248 207 165 185 184 190 211 203 194 190 187 192 200 213 224 216 209 241 247 202 229 249 218 201 227 213 204 231 249 262 264 255 245 235 251 271 288
85 115 358 34 66 59 68 134 148 162 166 165 178 192 179 182 181 164 127 149 162 172 185 190 178 167 173 173 160 182 199 175 153 172 171 148 152 171 166 175 171 49 51 103 146 176 184 206 121 119 222 261 217 164 178 188 191 214 225 210 198 196 204 213 219 224 225 228 246 257 255 257 259 189 192 229 203 192 244 258 246 243 237 242 267 274 282 296
94 92 112 104 81 65 143 148 152 159 172 179 187 190 186 191 185 161 161 219 171 158 182 188 170 157 170 179 190 216 216 168 138 162 170 156 166 187 179 173 157 128 92 121 108 105 171 188 70 100 187 258 228 150 158 133 118 246 255 229 208 203 209 218 221 218 213 220 237 249 254 259 251 154 176 211 162 178 221 234 241 256 264 267 275 273 269 268
86 21 74 105 85 225 159 136 158 171 187 187 179 173 182 191 173 152 163 269 201 174 186 182 165 143 152 189 207 216 213 173 146 161 169 134 114 107 111 136 144 140 143 149 128 106 137 141 101 135 183 267 341 130 130 96 85 253 247 224 212 211 210 215 230 231 220 213 220 227 236 248 238 152 178 202 187 200 218 222 234 254 257 246 242 243 244 245